Location: Taukkyan
(23.1052°N, 94.0030°E)
Time: 11:49:20
(UTC+00:00)

SL-16 R/B - Pass Details

Date: 06 July 2020
Orbit: 985 x 1007 km, 99.5° (Epoch: 14 August)

Event Time Altitude Azimuth Distance (km) Brightness Sun altitude
Exits shadow 20:32:41 23° 307° (NW) 1,979 4.0 -29.4°
Drops below altitude 10° 20:35:18 10° 325° (NW) 2,768 5.0 -29.0°
Sets 20:38:01 0° 334° (NNW) 3,723 5.8 -28.5°
